Orbital Elements
Epoch 2025 May 5.0 TT = JDT 2460800.5
T 2025 May 24.94438 TT MPCW
q 1.2263740 (2000.0) P Q
n 0.12582723 Peri. 247.03578 +0.95779640 -0.22284778
a 3.9441457 Node 125.37160 +0.26640547 +0.92540807
e 0.6890647 Incl. 12.86547 -0.10795453 +0.30652694
P 7.83
From 3115 observations 2001 June 21-2018 Jan. 23, mean residual 0".6.
Nongravitational parameters A1 = +0.17, A2 = +0.0030.
|